COSMOS 1527

Satellite information

Favourite Embed

Satellite Type and Status

PAYLOADIN ORBIT

Key statistics

Satellite COSMOS 1527 at a glance.

Uptime

15278

Days in orbit

Revolutions

≈ 12.5

Per day

Orbit

LEO

Low Earth Orbit

Inclination

74.0

Latest

Satellite identification and parameters

Extended collection of information and parameters for COSMOS 1527.

Object identification

Identified? True

Debris? False

Object name: COSMOS 1527

International designator: 1984-001F

Object number (NORAD): 14616

Object ID (CCSDS): 14616

Country: COMMONWEALTH OF INDEPENDENT STATES (CIS)

Current information (Y/N): Y

RCS size: MEDIUM

Orbital parameters

Period: 115.099 minutes

Inclination: 74.0088 deg

SMA: 7838.033 km

Apoapsis: 1460.897 km

Periapsis: 1458.9 km

RAAN: 210.3107 deg

Eccentricy: 0.0001274

Argument of periapsis: 153.1291 deg

Mean anomaly: 19.7813 deg

Mean motion: 12.51100226 rev/day

Mean motion (dot): -0.00000013 rev/day2

B* drag term: 0.000016472 1/REarth

Two-line elements (TLE)

Creation date: Nov. 2, 2025, 3:46 p.m.

Reference frame: TEME

Reference center: EARTH

Epoch: Nov. 2, 2025, 12:19 p.m. UTC

TLE line 0: 0 COSMOS 1527

TLE line 1: 1 14616U 84001F 25306.51342514 -.00000013 00000-0 16472-4 0 9991

TLE line 2: 2 14616 74.0088 210.3107 0001274 153.1291 19.7813 12.51100226499020

Live tracking on map

Real-time ground track for satellite COSMOS 1527.

In-orbit conjunctions

There are no conjunctions computed for COSMOS 1527, at the moment. Check back to stay up to date, as we update our databases every day.

Go to all conjunctions

Associated space launch

Military communications satellites

COSMOS 1527 was lifted into orbit during the mission ‘Kosmos-3M | Strela-1M 273-280’, on board a Kosmos-3M space rocket.

The launch took place on Jan. 5, 1984, 8:09 p.m. from 132/2.

For more information about the launch, click the button.

Launch to space Kosmos-3M | Strela-1M 273-280
Kosmos-3M | Strela-1M 273-280

Agency: N/A

Status: Launch Successful

Launch date: Jan. 5, 1984, 8:09 p.m. UTC

Rocket: Kosmos-3M

Launch pad: 132/2

Location: Plesetsk Cosmodrome, Russian Federation

...

Latest news about this satellite

There are no fresh news available about this satellite. Check back as we update our databases every day.


Newsletter sign-up

Weekly statistics, charts and insights to help you stay on top of the space industry.